Location: Boiro
(42.6475°N, 8.8834°W)
Time: 14:50:32
(UTC+01:00)

Vanguard 3 - Pass Details

Date: 07 December 2021
Orbit: 508 x 3260 km, 33.3° (Epoch: 20 January)

Event Time Altitude Azimuth Distance (km) Brightness Sun altitude
Rises 03:35:43 0° 225° (SW) 6,405 - -56.6°
Reaches altitude 10° 03:39:50 10° 220° (SW) 5,662 - -55.9°
Maximum altitude 03:56:59 47° 154° (SSE) 3,932 - -53.0°
Exits shadow 03:57:05 47° 153° (SSE) 3,932 10.3 -53.0°
Drops below altitude 10° 04:14:17 10° 89° (E) 5,733 11.9 -50.0°
Sets 04:18:27 0° 84° (E) 6,491 12.4 -49.3°
